User: anonymous   Login
Location: Churchill Northern Studies Centre
(58.7378°N, 93.8201°W)
Time: 20:00:32
(UTC-06:00)
Language:

Gurwin Techsat 1B - Orbit

View from above orbital plane
View from above orbital plane
View from above satellite
View from above satellite

Ground track
Ground track

The orbit data is extracted from the following two-line orbital elements,

1 25397U 98043D   18022.89888750 -.00000000 +00000-0 +18908-4 0  9997
2 25397 098.6357 325.8580 0002407 084.6269 275.5184 14.23638356014834
Epoch (UTC): 22 January 2018 21:34:23
Eccentricity: 0.0002407
inclination: 98.6357°
perigee height: 811 km
apogee height: 815 km
right ascension of ascending node: 325.8580°
argument of perigee: 84.6269°
revolutions per day: 14.23638356
mean anomaly at epoch: 275.5184°
orbit number at epoch: 1483

The dashed part of the orbit path shows where the satellite is in the earth's shadow,  

DLR